TimeCST,TemperatureF,Dew PointF,Humidity,Sea Level PressureIn,VisibilityMPH,Wind Direction,Wind SpeedMPH,Gust SpeedMPH,PrecipitationIn,Events,Conditions,WindDirDegrees,DateUTC
12:08 AM,55.4,53.6,94,30.24,0.2,SE,3.5,-,N/A,Fog,Fog,140,2005-01-10 06:08:00
12:30 AM,55.4,53.6,94,30.24,0.5,SE,3.5,-,0.00,Fog-Rain,Light Rain,140,2005-01-10 06:30:00
12:40 AM,55.4,53.6,94,30.24,0.2,SSE,4.6,-,0.00,Fog-Rain,Light Rain,160,2005-01-10 06:40:00
12:53 AM,53.1,52.0,96,30.25,0.2,SSE,4.6,-,0.00,Fog,Fog,160,2005-01-10 06:53:00
1:53 AM,54.0,52.0,93,30.26,0.2,Calm,Calm,-,0.01,Fog,Fog,0,2005-01-10 07:53:00
2:00 AM,55.4,53.6,94,30.24,0.8,Calm,Calm,-,N/A,,Overcast,0,2005-01-10 08:00:00
2:29 AM,57.2,57.2,100,30.24,2.0,Calm,Calm,-,N/A,,Overcast,0,2005-01-10 08:29:00
2:42 AM,57.2,55.4,94,30.24,2.0,Calm,Calm,-,N/A,,Overcast,0,2005-01-10 08:42:00
2:53 AM,57.9,55.9,93,30.25,3.0,South,5.8,-,N/A,,Overcast,170,2005-01-10 08:53:00
3:07 AM,57.2,55.4,94,30.23,1.5,SE,9.2,-,N/A,,Mostly Cloudy,140,2005-01-10 09:07:00
3:10 AM,55.4,55.4,100,30.22,0.8,SE,8.1,-,N/A,,Mostly Cloudy,140,2005-01-10 09:10:00
3:25 AM,57.2,55.4,94,30.22,2.0,SSE,4.6,-,N/A,,Partly Cloudy,150,2005-01-10 09:25:00
3:39 AM,55.4,53.6,94,30.23,1.8,Calm,Calm,-,N/A,,Mostly Cloudy,0,2005-01-10 09:39:00
3:53 AM,57.0,55.0,93,30.25,2.5,SE,4.6,-,N/A,,Mostly Cloudy,130,2005-01-10 09:53:00
4:05 AM,57.2,55.4,94,30.23,2.5,SE,5.8,-,N/A,,Overcast,130,2005-01-10 10:05:00
4:13 AM,57.2,55.4,94,30.23,1.0,SSE,3.5,-,N/A,,Overcast,150,2005-01-10 10:13:00
4:20 AM,57.2,55.4,94,30.23,1.2,SE,6.9,-,N/A,,Overcast,130,2005-01-10 10:20:00
4:26 AM,57.2,55.4,94,30.23,2.0,ESE,3.5,-,N/A,,Overcast,110,2005-01-10 10:26:00
4:35 AM,57.2,55.4,94,30.23,1.2,ESE,3.5,-,N/A,,Overcast,120,2005-01-10 10:35:00
4:53 AM,57.9,57.0,97,30.25,2.0,SSE,3.5,-,N/A,,Overcast,150,2005-01-10 10:53:00
5:06 AM,57.2,57.2,100,30.23,3.0,SSE,3.5,-,N/A,,Overcast,160,2005-01-10 11:06:00
5:17 AM,57.2,57.2,100,30.23,2.5,SSE,5.8,-,N/A,,Overcast,150,2005-01-10 11:17:00
5:34 AM,59.0,57.2,94,30.23,3.0,SSE,3.5,-,N/A,,Overcast,160,2005-01-10 11:34:00
5:53 AM,57.9,57.0,97,30.25,4.0,SSE,4.6,-,N/A,,Overcast,150,2005-01-10 11:53:00
6:02 AM,57.2,57.2,100,30.24,4.0,SSE,3.5,-,N/A,,Overcast,150,2005-01-10 12:02:00
6:53 AM,59.0,57.0,93,30.25,4.0,SE,4.6,-,N/A,,Overcast,140,2005-01-10 12:53:00
7:02 AM,59.0,57.2,94,30.23,2.5,SE,5.8,-,N/A,,Overcast,130,2005-01-10 13:02:00
7:23 AM,59.0,57.2,94,30.24,1.5,ESE,4.6,-,N/A,,Overcast,120,2005-01-10 13:23:00
7:53 AM,59.0,57.0,93,30.26,1.5,SE,6.9,-,N/A,,Overcast,130,2005-01-10 13:53:00
8:00 AM,59.0,57.2,94,30.24,2.0,SE,8.1,-,N/A,,Overcast,140,2005-01-10 14:00:00
8:53 AM,60.1,57.9,93,30.27,2.0,SSE,5.8,-,N/A,,Overcast,160,2005-01-10 14:53:00
9:53 AM,61.0,59.0,93,30.27,7.0,SSE,6.9,-,N/A,,Overcast,150,2005-01-10 15:53:00
10:53 AM,63.0,60.1,90,30.26,10.0,SSE,8.1,-,N/A,,Overcast,150,2005-01-10 16:53:00
11:04 AM,64.4,60.8,88,30.24,10.0,SSE,6.9,-,N/A,,Overcast,160,2005-01-10 17:04:00
11:53 AM,66.0,61.0,84,30.22,7.0,SE,6.9,-,N/A,,Overcast,140,2005-01-10 17:53:00
12:53 PM,66.9,61.0,81,30.18,7.0,SSE,9.2,-,N/A,,Overcast,150,2005-01-10 18:53:00
1:00 PM,66.2,60.8,83,30.16,-9999.0,SE,8.1,-,N/A,,Overcast,140,2005-01-10 19:00:00
1:53 PM,68.0,62.1,81,30.16,7.0,SSE,5.8,-,N/A,,Overcast,160,2005-01-10 19:53:00
2:05 PM,69.8,62.6,78,30.14,7.0,Variable,3.5,-,N/A,,Overcast,0,2005-01-10 20:05:00
2:53 PM,70.0,62.1,76,30.14,7.0,South,6.9,-,N/A,,Overcast,170,2005-01-10 20:53:00
3:44 PM,69.8,62.6,78,30.13,7.0,South,10.4,-,N/A,,Overcast,190,2005-01-10 21:44:00
3:53 PM,68.0,62.1,81,30.14,7.0,South,10.4,-,N/A,,Overcast,190,2005-01-10 21:53:00
4:53 PM,66.9,62.1,84,30.12,5.0,SSE,6.9,-,N/A,,Haze,150,2005-01-10 22:53:00
5:31 PM,66.2,62.6,88,30.11,5.0,SSE,5.8,-,N/A,,Haze,160,2005-01-10 23:31:00
5:53 PM,64.9,61.0,87,30.13,5.0,SSE,8.1,-,N/A,,Haze,160,2005-01-10 23:53:00
6:53 PM,64.9,61.0,87,30.12,7.0,SSE,5.8,-,N/A,,Haze,150,2005-01-11 00:53:00
7:53 PM,63.0,60.1,90,30.11,5.0,SE,5.8,-,N/A,,Haze,130,2005-01-11 01:53:00
8:53 PM,64.0,61.0,90,30.11,-9999.0,SE,4.6,-,N/A,,Haze,130,2005-01-11 02:53:00
9:41 PM,64.4,62.6,94,30.10,5.0,SE,6.9,-,N/A,,Haze,130,2005-01-11 03:41:00
9:53 PM,64.0,62.1,93,30.11,5.0,SE,6.9,-,N/A,,Haze,140,2005-01-11 03:53:00
10:01 PM,64.4,62.6,94,30.10,2.5,SSE,4.6,-,N/A,,Haze,160,2005-01-11 04:01:00
10:53 PM,64.9,62.1,90,30.12,2.5,SE,4.6,-,N/A,,Haze,130,2005-01-11 04:53:00
11:00 PM,64.4,62.6,94,30.10,-9999.0,SE,5.8,-,N/A,,Haze,130,2005-01-11 05:00:00
11:10 PM,64.4,62.6,94,30.10,2.5,SE,5.8,-,N/A,,Haze,130,2005-01-11 05:10:00
11:53 PM,66.0,64.0,93,30.11,2.5,South,4.6,-,N/A,,Haze,180,2005-01-11 05:53:00